Regional Weather Roundup
Issued by NWS

Home | Current Version | Previous Version | Graphics & Text | Print | Product List | Glossary On
Versions: 1 2 3 4 5 6 7 8 9 10 11 12 13 14 15 16 17 18 19 20 21 22 23 24 25 26 27 28 29 30 31 32 33 34 35 36 37 38 39 40 41 42 43 44 45 46 47 48 49 50
000
ASUS43 KMPX 231401
RWRMN
WEATHER ROUNDUP FOR MINNESOTA
NATIONAL WEATHER SERVICE TWIN CITIES/CHANHASSEN MN
800 AM CST MON JAN 23 2017


NOTE: "FAIR" INDICATES FEW OR NO CLOUDS BELOW 12,000 FEET WITH NO
SIGNIFICANT WEATHER AND/OR OBSTRUCTIONS TO VISIBILITY. N/A MEANS
CURRENT SKY AND/OR WEATHER CONDITIONS ARE NOT AVAILABLE.

MNZ060>063-068>070-231500-
   Twin Cities Metro

CITY           SKY/WX    TMP DP  RH WIND       PRES   REMARKS
TWIN CITIES    LGT SNOW  33  31  92 W7        29.81R FOG     WCI  27
ST PAUL        LGT SNOW  33  33 100 W5        29.83R FOG     WCI  29
CRYSTAL        CLOUDY    33  30  88 W6        29.80R FOG     WCI  28
BLAINE         LGT SNOW  34  34 100 W5        29.81R WCI  30
LAKEVILLE      LGT SNOW  30  30 100 W6        29.81S WCI  24
EDEN PRAIRIE   CLOUDY    33  31  92 W6        29.80S FOG     WCI  28
SOUTH ST PAUL  CLOUDY    33  33  99 W5        29.82R FOG     WCI  29
LAKE ELMO      LGT SNOW  34  32  93 W5        29.81S WCI  30
$$
MNZ001>005-007-008-013>017-022>024-027-028-231500-
   Northwest Minnesota

CITY           SKY/WX    TMP DP  RH WIND       PRES   REMARKS
BEMIDJI        CLOUDY    31  28  92 W5        29.76S WCI  26
HALLOCK        CLOUDY    30  28  93 SW5       29.75S WCI  25
ROSEAU         CLOUDY    30  27  86 SW5       29.75S WCI  25
WARROAD        CLOUDY    30  27  86 SW7       29.75S WCI  23
THIEF RVR FALL CLOUDY    30  28  92 SW6       29.77F WCI  24
CROOKSTON      CLOUDY    30  28  93 SW3       29.78F
FOSSTON        CLOUDY    28  27  93 SW5       29.78S WCI  23
DETROIT LAKES  MOCLDY    32  30  93 CALM      29.78F
MOORHEAD       CLOUDY    32  27  80 CALM      29.80S
PARK RAPIDS    CLOUDY    32  25  75 NW8       29.76F WCI  25
MAHNOMEN       CLOUDY    30  28  94 CALM      29.77F
$$
MNZ006-009>011-018-025>026-231500-
   North Central Minnesota

CITY           SKY/WX    TMP DP  RH WIND       PRES   REMARKS
BAUDETTE       CLOUDY    32  30  92 SW5       29.74S FOG     WCI  27
FLAG ISLAND    DRIZZLE   32  30  93 SW6       29.73S WCI  26
INTL FALLS     CLOUDY    32  31  96 SW3       29.74S FOG
WASKISH        CLOUDY    32  30  93 SW8       29.76S FOG     WCI  25
LONGVILLE      CLOUDY    30  30 100 W7        29.77S FOG     WCI  23
GRAND RAPIDS   CLOUDY    32  31  96 W6        29.77S FOG     WCI  26
CRANE LAKE     CLOUDY    32  32 100 CALM      29.76S
ORR            CLOUDY    32  30  93 CALM      29.72S
COOK           CLOUDY    32  32 100 CALM      29.75S
WALKER         CLOUDY    30  28  92 W5        29.76F WCI  25
$$
MNZ012-019>021-037-231500-
   Northeast Minnesota

CITY           SKY/WX    TMP DP  RH WIND       PRES   REMARKS
DULUTH         CLOUDY    34  33  96 NW7       29.74R FOG     WCI  28
ELY            LGT SNOW  32  32 100 CALM      29.73S
HIBBING        CLOUDY    31  31 100 CALM      29.74S
EVELETH        CLOUDY    32  32  99 SW3       29.76R
DULUTH HARBOR  CLOUDY    36  34  93 W5        29.77S
TWO HARBORS    CLOUDY    37  34  87 CALM      29.72S
SILVER BAY     CLOUDY    34  34 100 CALM      29.72S
GRAND MARAIS     N/A     35  33  92 CALM      29.75R
G MARAIS ARPRT CLOUDY    30  27  86 NW3       29.71S
$$
MNZ029>031-032-039>041-046>048-054>057-064-231500-
   West Central Minnesota

CITY           SKY/WX    TMP DP  RH WIND       PRES   REMARKS
FERGUS FALLS   CLOUDY    30  30 100 CALM      29.84R
WHEATON        CLOUDY    37  34  87 W3        29.84R
MORRIS         CLOUDY    32  28  86 NW7       29.80S WCI  26
ALEXANDRIA     CLOUDY    31  28  89 NW7       29.79F WCI  24
ELBOW LAKE     CLOUDY    31  28  88 W6        29.80S FOG     WCI  25
WADENA         CLOUDY    28  28 100 NW5       29.77F WCI  23
GLENWOOD       CLOUDY    30  28  93 NW10      29.79S WCI  21
APPLETON       CLOUDY    34  30  86 NW5       29.81F WCI  30
ORTONVILLE     CLOUDY    32  27  80 CALM      29.82S
MADISON        CLOUDY    36  32  87 NW7       29.82S
WILLMAR        CLOUDY    34  30  86 N6        29.81F WCI  29
$$
MNZ033>034-036-042>043-049>051-058-059-231500-
   Central Minnesota

CITY           SKY/WX    TMP DP  RH WIND       PRES   REMARKS
ST CLOUD       CLOUDY    32  32 100 NW6       29.79S FOG     WCI  26
SAUK CENTRE    CLOUDY    31  28  90 NW7       29.79S WCI  24
PAYNESVILLE    CLOUDY    32  32  99 N6        29.80R WCI  26
AITKIN         CLOUDY    36  30  80 W3        29.76R FOG
PINE RIVER     CLOUDY    30  30 100 W6        29.82R FOG     WCI  24
BRAINERD       CLOUDY    31  30  96 NW9       29.78S FOG     WCI  23
STAPLES        CLOUDY    28  28 100 NW5       29.78F WCI  23
LONG PRAIRIE   CLOUDY    30  28  93 CALM      29.78F
LITTLE FALLS   CLOUDY    32  30  93 NW3       29.79S FOG
LITCHFIELD     CLOUDY    34  30  86 NW7       29.81R WCI  28
BUFFALO        CLOUDY    32  30  92 CALM      29.81S
MAPLE LAKE     CLOUDY    33  32  96 NW3       29.81S FOG
HUTCHINSON     CLOUDY    33  30  88 NW10      29.82S WCI  25
$$
MNZ037-044-045-052-053-231500-
   East Central Minnesota

CITY           SKY/WX    TMP DP  RH WIND       PRES   REMARKS
PRINCETON      MIX PCPN  34  34 100 W5        29.80S WCI  30
MORA           CLOUDY    32  32 100 CALM      29.81R FOG
CAMBRIDGE      CLOUDY    36  34  93 CALM      29.78S FOG
RUSH CITY      LGT SNOW  32  32 100 W3        29.79S VSB 1
MOOSE LAKE     CLOUDY    34  32  93 CALM      29.75S
HINCKLEY       CLOUDY    32  32 100 CALM      29.78S FOG
CLOQUET        CLOUDY    34  34 100 W5        29.75S FOG     WCI  30
MCGREGOR       CLOUDY    32  32 100 W3        29.77S VSB 3/4
$$
MNZ071>073-080-081-089-090-097-098-231500-
   Southwest Minnesota

CITY           SKY/WX    TMP DP  RH WIND       PRES   REMARKS
MONTEVIDEO     CLOUDY    32  32 100 CALM      29.83F
GRANITE FALLS  CLOUDY    34  31  90 NW6       29.83F WCI  29
CANBY          CLOUDY    33  30  90 CALM      29.83S
MARSHALL       CLOUDY    31  29  92 NW8       29.82F WCI  23
REDWOOD FALLS  CLOUDY    34  26  72 N7        29.81F WCI  28
OLIVIA         CLOUDY    34  30  86 NW8       29.80F WCI  27
PIPESTONE      CLOUDY    30  28  93 NW5       29.82R WCI  25
WINDOM         CLOUDY    32  28  86 NW9       29.80F WCI  24
WORTHINGTON    CLOUDY    31  28  89 NW6       29.82R WCI  25
JACKSON        CLOUDY    32  28  86 N5        29.81S WCI  27
TRACY          CLOUDY    32  31  95 NW9       29.82S WCI  24
SLAYTON        CLOUDY    30  28  94 NW9       29.81S WCI  21
$$
MNZ065>067-074>077-082>085-091>093-231500-
   South Central Minnesota

CITY           SKY/WX    TMP DP  RH WIND       PRES   REMARKS
MANKATO        CLOUDY    32  30  92 NW8       29.82  WCI  25
NEW ULM        CLOUDY    32  28  86 NW6       29.81F WCI  26
ST JAMES       CLOUDY    32  28  86 NW9       29.83F WCI  24
FAIRMONT       CLOUDY    32  28  85 N9        29.81F WCI  24
GLENCOE        CLOUDY    33  32  95 NW6       29.81R WCI  28
OWATONNA       CLOUDY    32  30  93 W6        29.81S FOG     WCI  26
WASECA         CLOUDY    32  30  93 W5        29.82F FOG     WCI  27
ALBERT LEA     CLOUDY    32  30  93 NW5       29.81S WCI  27
$$
MNZ078>079-086>088-094>096-231500-
   Southeast Minnesota

CITY           SKY/WX    TMP DP  RH WIND       PRES   REMARKS
ROCHESTER      CLOUDY    31  31 100 W8        29.80R FOG     WCI  23
RED WING       CLOUDY    34  32  93 W5        29.81R FOG     WCI  30
STANTON        LGT SNOW  33  32  95 W5        29.80S WCI  29
DODGE CENTER   LGT SNOW  30  30 100 CALM      29.80R
WINONA         CLOUDY    34  32  93 CALM      29.83R FOG
AUSTIN         CLOUDY    32  28  86 NW7       29.80S WCI  26
PRESTON        LGT SNOW  31  30  95 NW6       29.81R WCI  26
$$
ABBREVIATIONS USED IN REMARKS
   TC - TEMPERATURES IN CELSIUS
  WCI - WIND CHILL INDEX
   HX - HEAT INDEX
  VSB - VISIBILITY
$$




USA.gov is the U.S. government's official web portal to all federal, state and local government web resources and services.